Showing default

DS-EO, 52935

Orbit data source: Space-Track

DS-EO, 52935 is a Singaporean payload satellite in LEO that was launched on Thu, 30 Jun 2022 UTC via a PSLV launch vehicle from the Sirharikota (SRI). Payload-class satellites include a variety of spacecraft equipped with specific instruments for various scientific and technological missions. These include communications satellites like Starlink; space stations such as the ISS; scientific satellites like the Hubble; Earth observation satellites from companies like Planet Labs, Umbra, and HawkEye 360; GPS; miniature CubeSats for education and research; and military/defense satellites.

Not visible in the next 10 days
Identifier
52935, 2022-072A
Orbit
LEO
Country
Flag of UnknownUnknown / SING
Related business
Manufacturer
SATRHW/STELEC
Mission
Operational Defense Imaging
Bus & Motor
DS-EO, Unknown motor
Mass
365 kg wet, ~350 kg dry
Launch date (UTC)
2022-06-30 (4 years ago)
Launch vehicle
PSLV
Launch site
Sirharikota (SRI)
Object type
Payload
Rocket body
Debris
Shape & HBR
Box + 1 Pan, 1.0 m
Radar Cross Section
6.000 m², Large (>1 m²)

Expand to show TLE details & history
Last TLE update: 7 hours ago

TLE from 7 hours ago
0 DS-EO
1 52935U 22072A   26062.90033656  .00007862  00000-0  38813-3 0  9994
2 52935   9.9930 251.0016 0003794 230.1213 129.8669 15.12898460202533
Epoch: 2026-03-03T21:36Z
TLE epoch observation values (Epoch: 2026-03-03T21:36:29.078Z)
Latitude
-0°
Longitude
125.20768°
Altitude
526.062 km
Speed
7.602 km/s
True Right ascension
16h 44m 00s
True Declination
0° 00' 00"
Sunlit
Object was in daylight at epoch
Visualization orbit readout
Latitude
Unknown
Longitude
Unknown
Altitude
Unknown
Speed
Unknown
Apparent Right ascension
Unknown
Apparent Declination
Unknown
Sunlit
N/A
Visualization observer readout
Local Sidereal Time
08:45:40
Azimuth
Unknown
Elevation
Unknown
Doppler factor
Unknown
Orbital elements
Apogee altitude
536.086 km
Perigee altitude
530.842 km
Semi-major axis
6,911.601 km
Eccentricity
0.00038
Inclination
9.993°
RAAN
251.0016°
Arg. of periapsis
230.1213°
True anomaly
129.90026°
Mean anomaly
129.8669°
Eccentric anomaly
129.88358°
Mean motion
3.77725 °/min
Orbital period
95.31 mins
BSTAR
0.00038813
Loading maneuver chart data...
Computing Atmospheric mass density...
Loading historical data...
Loading historical data...
Loading historical data...
Loading historical data...
Loading historical data...
Loading historical data...
Loading historical data...
Other satellites on launch #72 in the year 2022 (2022-06-30 UTC)

Documentation

Showing up to 5 results
|